owner,sensor,date,latitude,longitude,air_pressure(mBar),qcFlag 
DISL,ioos:station:DISL:MBLA:1,2018-01-01T00:00:00Z,30.4367,-88.0117,1023.7,11111222 
DISL,ioos:station:DISL:MBLA:1,2018-01-01T00:30:00Z,30.4367,-88.0117,1024.0,11111222 
DISL,ioos:station:DISL:MBLA:1,2018-01-01T01:00:00Z,30.4367,-88.0117,1024.4,11111222 
DISL,ioos:station:DISL:MBLA:1,2018-01-01T01:30:00Z,30.4367,-88.0117,1025.1,11111222 
DISL,ioos:station:DISL:MBLA:1,2018-01-01T02:00:00Z,30.4367,-88.0117,1025.7,11111222 
DISL,ioos:station:DISL:MBLA:1,2018-01-01T02:30:00Z,30.4367,-88.0117,1026.4,11111222 
DISL,ioos:station:DISL:MBLA:1,2018-01-01T03:00:00Z,30.4367,-88.0117,1026.4,11111222 
DISL,ioos:station:DISL:MBLA:1,2018-01-01T03:30:00Z,30.4367,-88.0117,1026.8,11111222 
DISL,ioos:station:DISL:MBLA:1,2018-01-01T04:00:00Z,30.4367,-88.0117,1027.4,11111222 
DISL,ioos:station:DISL:MBLA:1,2018-01-01T04:30:00Z,30.4367,-88.0117,1026.8,11111222 
DISL,ioos:station:DISL:MBLA:1,2018-01-01T05:00:00Z,30.4367,-88.0117,1027.1,11111222 
DISL,ioos:station:DISL:MBLA:1,2018-01-01T06:30:00Z,30.4367,-88.0117,1027.092087,1111122 
DISL,ioos:station:DISL:MBLA:1,2018-01-01T07:00:00Z,30.4367,-88.0117,1026.8,11111222 
DISL,ioos:station:DISL:MBLA:1,2018-01-01T07:30:00Z,30.4367,-88.0117,1027.092087,1111122 
DISL,ioos:station:DISL:MBLA:1,2018-01-01T08:00:00Z,30.4367,-88.0117,1028.1,11111222 
DISL,ioos:station:DISL:MBLA:1,2018-01-01T08:30:00Z,30.4367,-88.0117,1028.108004,1111122 
DISL,ioos:station:DISL:MBLA:1,2018-01-01T09:00:00Z,30.4367,-88.0117,1028.1,11111222 
DISL,ioos:station:DISL:MBLA:1,2018-01-01T09:30:00Z,30.4367,-88.0117,1028.785282,1111122 
DISL,ioos:station:DISL:MBLA:1,2018-01-01T10:00:00Z,30.4367,-88.0117,1029.1,11111222 
DISL,ioos:station:DISL:MBLA:1,2018-01-01T10:30:00Z,30.4367,-88.0117,1029.123921,1111122 
DISL,ioos:station:DISL:MBLA:1,2018-01-01T11:00:00Z,30.4367,-88.0117,1029.1,11111222 
DISL,ioos:station:DISL:MBLA:1,2018-01-01T11:30:00Z,30.4367,-88.0117,1029.46256,1111122 
DISL,ioos:station:DISL:MBLA:1,2018-01-01T12:00:00Z,30.4367,-88.0117,1030.8,11111222 
DISL,ioos:station:DISL:MBLA:1,2018-01-01T12:30:00Z,30.4367,-88.0117,1031.494394,1111122 
DISL,ioos:station:DISL:MBLA:1,2018-01-01T13:00:00Z,30.4367,-88.0117,1031.2,11111222 
DISL,ioos:station:DISL:MBLA:1,2018-01-01T13:30:00Z,30.4367,-88.0117,1031.833033,1111122 
DISL,ioos:station:DISL:MBLA:1,2018-01-01T14:00:00Z,30.4367,-88.0117,1031.8,11111222 
DISL,ioos:station:DISL:MBLA:1,2018-01-01T14:30:00Z,30.4367,-88.0117,1032.171672,1111122 
DISL,ioos:station:DISL:MBLA:1,2018-01-01T15:00:00Z,30.4367,-88.0117,1032.5,11111222 
DISL,ioos:station:DISL:MBLA:1,2018-01-01T15:30:00Z,30.4367,-88.0117,1033.187589,1111122 
DISL,ioos:station:DISL:MBLA:1,2018-01-01T16:00:00Z,30.4367,-88.0117,1033.2,11111222 
DISL,ioos:station:DISL:MBLA:1,2018-01-01T16:30:00Z,30.4367,-88.0117,1033.187589,1111122 
DISL,ioos:station:DISL:MBLA:1,2018-01-01T17:00:00Z,30.4367,-88.0117,1033.5,11111222 
DISL,ioos:station:DISL:MBLA:1,2018-01-01T17:30:00Z,30.4367,-88.0117,1032.510311,1111122 
DISL,ioos:station:DISL:MBLA:1,2018-01-01T18:00:00Z,30.4367,-88.0117,1032.2,11111222 
DISL,ioos:station:DISL:MBLA:1,2018-01-01T18:30:00Z,30.4367,-88.0117,1031.494394,1111122 
DISL,ioos:station:DISL:MBLA:1,2018-01-01T19:00:00Z,30.4367,-88.0117,1031.5,11111222 
DISL,ioos:station:DISL:MBLA:1,2018-01-01T19:30:00Z,30.4367,-88.0117,1030.817116,1111122 
DISL,ioos:station:DISL:MBLA:1,2018-01-01T20:00:00Z,30.4367,-88.0117,1030.5,11111222 
DISL,ioos:station:DISL:MBLA:1,2018-01-01T20:30:00Z,30.4367,-88.0117,1030.478477,1111122 
DISL,ioos:station:DISL:MBLA:1,2018-01-01T21:00:00Z,30.4367,-88.0117,1030.8,11111222 
DISL,ioos:station:DISL:MBLA:1,2018-01-01T21:30:00Z,30.4367,-88.0117,1030.817116,1111122 
DISL,ioos:station:DISL:MBLA:1,2018-01-01T22:00:00Z,30.4367,-88.0117,1031.5,11111222 
DISL,ioos:station:DISL:MBLA:1,2018-01-01T22:30:00Z,30.4367,-88.0117,1031.155755,1111122 
DISL,ioos:station:DISL:MBLA:1,2018-01-01T23:00:00Z,30.4367,-88.0117,1032.2,11111222 
DISL,ioos:station:DISL:MBLA:1,2018-01-01T23:30:00Z,30.4367,-88.0117,1032.510311,1111122 
DISL,ioos:station:DISL:MBLA:1,2018-01-02T00:00:00Z,30.4367,-88.0117,1032.2,11111222 
DISL,ioos:station:DISL:MBLA:1,2018-01-02T00:30:00Z,30.4367,-88.0117,1033.187589,1111122 
DISL,ioos:station:DISL:MBLA:1,2018-01-02T01:00:00Z,30.4367,-88.0117,1033.2,11111222 
DISL,ioos:station:DISL:MBLA:1,2018-01-02T01:30:00Z,30.4367,-88.0117,1033.187589,1111122 
DISL,ioos:station:DISL:MBLA:1,2018-01-02T02:00:00Z,30.4367,-88.0117,1033.5,11111222 
DISL,ioos:station:DISL:MBLA:1,2018-01-02T02:30:00Z,30.4367,-88.0117,1033.864867,1111122 
DISL,ioos:station:DISL:MBLA:1,2018-01-02T03:00:00Z,30.4367,-88.0117,1034.2,11111222 
DISL,ioos:station:DISL:MBLA:1,2018-01-02T03:30:00Z,30.4367,-88.0117,1033.864867,1111122 
DISL,ioos:station:DISL:MBLA:1,2018-01-02T04:00:00Z,30.4367,-88.0117,1033.5,11111222 
DISL,ioos:station:DISL:MBLA:1,2018-01-02T04:30:00Z,30.4367,-88.0117,1033.864867,1111122 
DISL,ioos:station:DISL:MBLA:1,2018-01-02T05:00:00Z,30.4367,-88.0117,1034.5,11111222 
DISL,ioos:station:DISL:MBLA:1,2018-01-02T05:30:00Z,30.4367,-88.0117,1034.203506,1111122 
DISL,ioos:station:DISL:MBLA:1,2018-01-02T06:00:00Z,30.4367,-88.0117,1033.5,11111222 
DISL,ioos:station:DISL:MBLA:1,2018-01-02T06:30:00Z,30.4367,-88.0117,1033.187589,1111122 
DISL,ioos:station:DISL:MBLA:1,2018-01-02T07:00:00Z,30.4367,-88.0117,1032.9,11111222 
DISL,ioos:station:DISL:MBLA:1,2018-01-02T07:30:00Z,30.4367,-88.0117,1033.187589,1111122 
DISL,ioos:station:DISL:MBLA:1,2018-01-02T08:00:00Z,30.4367,-88.0117,1033.2,11111222 
DISL,ioos:station:DISL:MBLA:1,2018-01-02T08:30:00Z,30.4367,-88.0117,1033.526228,1111122 
DISL,ioos:station:DISL:MBLA:1,2018-01-02T09:00:00Z,30.4367,-88.0117,1033.5,11111222 
DISL,ioos:station:DISL:MBLA:1,2018-01-02T09:30:00Z,30.4367,-88.0117,1033.526228,1111122 
DISL,ioos:station:DISL:MBLA:1,2018-01-02T10:00:00Z,30.4367,-88.0117,1033.9,11111222 
DISL,ioos:station:DISL:MBLA:1,2018-01-02T10:30:00Z,30.4367,-88.0117,1033.864867,1111122 
DISL,ioos:station:DISL:MBLA:1,2018-01-02T11:00:00Z,30.4367,-88.0117,1034.2,11111222 
DISL,ioos:station:DISL:MBLA:1,2018-01-02T11:30:00Z,30.4367,-88.0117,1034.203506,1111122 
DISL,ioos:station:DISL:MBLA:1,2018-01-02T12:00:00Z,30.4367,-88.0117,1034.5,11111222 
DISL,ioos:station:DISL:MBLA:1,2018-01-02T12:30:00Z,30.4367,-88.0117,1034.880784,1111122 
DISL,ioos:station:DISL:MBLA:1,2018-01-02T13:00:00Z,30.4367,-88.0117,1034.9,11111222 
DISL,ioos:station:DISL:MBLA:1,2018-01-02T13:30:00Z,30.4367,-88.0117,1034.542145,1111122 
DISL,ioos:station:DISL:MBLA:1,2018-01-02T14:00:00Z,30.4367,-88.0117,1034.5,11111222 
DISL,ioos:station:DISL:MBLA:1,2018-01-02T14:30:00Z,30.4367,-88.0117,1034.880784,1111122 
DISL,ioos:station:DISL:MBLA:1,2018-01-02T15:00:00Z,30.4367,-88.0117,1035.2,11111222 
DISL,ioos:station:DISL:MBLA:1,2018-01-02T15:30:00Z,30.4367,-88.0117,1034.880784,1111122 
DISL,ioos:station:DISL:MBLA:1,2018-01-02T16:00:00Z,30.4367,-88.0117,1034.2,11111222 
DISL,ioos:station:DISL:MBLA:1,2018-01-02T16:30:00Z,30.4367,-88.0117,1034.542145,1111122 
DISL,ioos:station:DISL:MBLA:1,2018-01-02T17:00:00Z,30.4367,-88.0117,1033.9,11111222 
DISL,ioos:station:DISL:MBLA:1,2018-01-02T17:30:00Z,30.4367,-88.0117,1033.5,11111222 
DISL,ioos:station:DISL:MBLA:1,2018-01-02T18:00:00Z,30.4367,-88.0117,1032.5,11111222 
DISL,ioos:station:DISL:MBLA:1,2018-01-02T18:30:00Z,30.4367,-88.0117,1031.8,11111222 
DISL,ioos:station:DISL:MBLA:1,2018-01-02T19:00:00Z,30.4367,-88.0117,1031.2,11111222 
DISL,ioos:station:DISL:MBLA:1,2018-01-02T19:30:00Z,30.4367,-88.0117,1030.817116,1111122 
DISL,ioos:station:DISL:MBLA:1,2018-01-02T20:00:00Z,30.4367,-88.0117,1030.1,11111222 
DISL,ioos:station:DISL:MBLA:1,2018-01-02T20:30:00Z,30.4367,-88.0117,1029.801199,1111122 
DISL,ioos:station:DISL:MBLA:1,2018-01-02T21:00:00Z,30.4367,-88.0117,1029.5,11111222 
DISL,ioos:station:DISL:MBLA:1,2018-01-02T21:30:00Z,30.4367,-88.0117,1029.123921,1111122 
DISL,ioos:station:DISL:MBLA:1,2018-01-02T22:00:00Z,30.4367,-88.0117,1028.8,11111222 
DISL,ioos:station:DISL:MBLA:1,2018-01-02T22:30:00Z,30.4367,-88.0117,1028.446643,1111122 
DISL,ioos:station:DISL:MBLA:1,2018-01-02T23:00:00Z,30.4367,-88.0117,1028.4,11111222 
DISL,ioos:station:DISL:MBLA:1,2018-01-02T23:30:00Z,30.4367,-88.0117,1029.123921,1111122 
DISL,ioos:station:DISL:MBLA:1,2018-01-03T00:00:00Z,30.4367,-88.0117,1028.8,11111222 
DISL,ioos:station:DISL:MBLA:1,2018-01-03T00:30:00Z,30.4367,-88.0117,1029.123921,1111122 
DISL,ioos:station:DISL:MBLA:1,2018-01-03T01:00:00Z,30.4367,-88.0117,1029.5,11111222 
DISL,ioos:station:DISL:MBLA:1,2018-01-03T01:30:00Z,30.4367,-88.0117,1029.123921,1111122 
DISL,ioos:station:DISL:MBLA:1,2018-01-03T02:00:00Z,30.4367,-88.0117,1029.5,11111222 
DISL,ioos:station:DISL:MBLA:1,2018-01-03T02:30:00Z,30.4367,-88.0117,1028.785282,1111122 
DISL,ioos:station:DISL:MBLA:1,2018-01-03T03:00:00Z,30.4367,-88.0117,1028.4,11111222 
DISL,ioos:station:DISL:MBLA:1,2018-01-03T03:30:00Z,30.4367,-88.0117,1028.8,11111222 
DISL,ioos:station:DISL:MBLA:1,2018-01-03T04:00:00Z,30.4367,-88.0117,1027.8,11111222 
DISL,ioos:station:DISL:MBLA:1,2018-01-03T04:30:00Z,30.4367,-88.0117,1028.1,11111222 
DISL,ioos:station:DISL:MBLA:1,2018-01-03T05:00:00Z,30.4367,-88.0117,1027.1,11111222 
DISL,ioos:station:DISL:MBLA:1,2018-01-03T05:30:00Z,30.4367,-88.0117,1027.430726,1111122 
DISL,ioos:station:DISL:MBLA:1,2018-01-03T06:00:00Z,30.4367,-88.0117,1026.8,11111222 
DISL,ioos:station:DISL:MBLA:1,2018-01-03T06:30:00Z,30.4367,-88.0117,1027.092087,1111122 
DISL,ioos:station:DISL:MBLA:1,2018-01-03T07:00:00Z,30.4367,-88.0117,1026.1,11111222 
DISL,ioos:station:DISL:MBLA:1,2018-01-03T07:30:00Z,30.4367,-88.0117,1025.398892,1111122 
DISL,ioos:station:DISL:MBLA:1,2018-01-03T08:00:00Z,30.4367,-88.0117,1026.4,11111222 
DISL,ioos:station:DISL:MBLA:1,2018-01-03T08:30:00Z,30.4367,-88.0117,1026.753448,1111122 
DISL,ioos:station:DISL:MBLA:1,2018-01-03T09:00:00Z,30.4367,-88.0117,1026.1,11111222 
DISL,ioos:station:DISL:MBLA:1,2018-01-03T09:30:00Z,30.4367,-88.0117,1026.07617,1111122 
DISL,ioos:station:DISL:MBLA:1,2018-01-03T10:00:00Z,30.4367,-88.0117,1025.4,11111222 
DISL,ioos:station:DISL:MBLA:1,2018-01-03T10:30:00Z,30.4367,-88.0117,1025.398892,1111122 
DISL,ioos:station:DISL:MBLA:1,2018-01-03T11:00:00Z,30.4367,-88.0117,1026.1,11111222 
DISL,ioos:station:DISL:MBLA:1,2018-01-03T11:30:00Z,30.4367,-88.0117,1025.060253,1111122 
DISL,ioos:station:DISL:MBLA:1,2018-01-03T12:00:00Z,30.4367,-88.0117,1025.1,11111222 
DISL,ioos:station:DISL:MBLA:1,2018-01-03T12:30:00Z,30.4367,-88.0117,1025.060253,1111122 
DISL,ioos:station:DISL:MBLA:1,2018-01-03T13:00:00Z,30.4367,-88.0117,1025.1,11111222 
DISL,ioos:station:DISL:MBLA:1,2018-01-03T13:30:00Z,30.4367,-88.0117,1025.398892,1111122 
DISL,ioos:station:DISL:MBLA:1,2018-01-03T14:00:00Z,30.4367,-88.0117,1025.1,11111222 
DISL,ioos:station:DISL:MBLA:1,2018-01-03T14:30:00Z,30.4367,-88.0117,1025.060253,1111122 
DISL,ioos:station:DISL:MBLA:1,2018-01-03T15:00:00Z,30.4367,-88.0117,1025.7,11111222 
DISL,ioos:station:DISL:MBLA:1,2018-01-03T15:30:00Z,30.4367,-88.0117,1025.737531,1111122 
DISL,ioos:station:DISL:MBLA:1,2018-01-03T16:00:00Z,30.4367,-88.0117,1026.1,11111222 
DISL,ioos:station:DISL:MBLA:1,2018-01-03T16:30:00Z,30.4367,-88.0117,1025.060253,1111122 
DISL,ioos:station:DISL:MBLA:1,2018-01-03T17:00:00Z,30.4367,-88.0117,1025.1,11111222 
DISL,ioos:station:DISL:MBLA:1,2018-01-03T17:30:00Z,30.4367,-88.0117,1024.382975,1111122 
DISL,ioos:station:DISL:MBLA:1,2018-01-03T18:00:00Z,30.4367,-88.0117,1023.4,11111222 
DISL,ioos:station:DISL:MBLA:1,2018-01-03T18:30:00Z,30.4367,-88.0117,1022.68978,1111122 
DISL,ioos:station:DISL:MBLA:1,2018-01-03T19:00:00Z,30.4367,-88.0117,1022.4,11111222 
DISL,ioos:station:DISL:MBLA:1,2018-01-03T19:30:00Z,30.4367,-88.0117,1022.351141,1111122 
DISL,ioos:station:DISL:MBLA:1,2018-01-03T20:00:00Z,30.4367,-88.0117,1021.7,11111222 
DISL,ioos:station:DISL:MBLA:1,2018-01-03T20:30:00Z,30.4367,-88.0117,1021.673863,1111122 
DISL,ioos:station:DISL:MBLA:1,2018-01-03T21:00:00Z,30.4367,-88.0117,1021.7,11111222 
DISL,ioos:station:DISL:MBLA:1,2018-01-03T21:30:00Z,30.4367,-88.0117,1021.335224,1111122 
DISL,ioos:station:DISL:MBLA:1,2018-01-03T22:00:00Z,30.4367,-88.0117,1021.7,11111222 
DISL,ioos:station:DISL:MBLA:1,2018-01-03T22:30:00Z,30.4367,-88.0117,1021.673863,1111122 
DISL,ioos:station:DISL:MBLA:1,2018-01-03T23:00:00Z,30.4367,-88.0117,1021.3,11111222 
DISL,ioos:station:DISL:MBLA:1,2018-01-03T23:30:00Z,30.4367,-88.0117,1021.673863,1111122 
DISL,ioos:station:DISL:MBLA:1,2018-01-04T00:00:00Z,30.4367,-88.0117,1022.0,11111222 
DISL,ioos:station:DISL:MBLA:1,2018-01-04T00:30:00Z,30.4367,-88.0117,1022.351141,1111122 
DISL,ioos:station:DISL:MBLA:1,2018-01-04T01:00:00Z,30.4367,-88.0117,1022.7,11111222 
DISL,ioos:station:DISL:MBLA:1,2018-01-04T01:30:00Z,30.4367,-88.0117,1022.68978,1111122 
DISL,ioos:station:DISL:MBLA:1,2018-01-04T02:00:00Z,30.4367,-88.0117,1022.7,11111222 
DISL,ioos:station:DISL:MBLA:1,2018-01-04T02:30:00Z,30.4367,-88.0117,1023.028419,1111122 
DISL,ioos:station:DISL:MBLA:1,2018-01-04T03:00:00Z,30.4367,-88.0117,1023.0,11111222 
DISL,ioos:station:DISL:MBLA:1,2018-01-04T03:30:00Z,30.4367,-88.0117,1022.7,11111222 
DISL,ioos:station:DISL:MBLA:1,2018-01-04T04:00:00Z,30.4367,-88.0117,1023.4,11111222 
DISL,ioos:station:DISL:MBLA:1,2018-01-04T04:30:00Z,30.4367,-88.0117,1023.4,11111222 
DISL,ioos:station:DISL:MBLA:1,2018-01-04T05:00:00Z,30.4367,-88.0117,1023.7,11111222 
DISL,ioos:station:DISL:MBLA:1,2018-01-04T05:30:00Z,30.4367,-88.0117,1023.705697,1111122 
DISL,ioos:station:DISL:MBLA:1,2018-01-04T06:00:00Z,30.4367,-88.0117,1024.0,11111222 
DISL,ioos:station:DISL:MBLA:1,2018-01-04T06:30:00Z,30.4367,-88.0117,1023.367058,1111122 
DISL,ioos:station:DISL:MBLA:1,2018-01-04T07:00:00Z,30.4367,-88.0117,1024.0,11111222 
DISL,ioos:station:DISL:MBLA:1,2018-01-04T07:30:00Z,30.4367,-88.0117,1023.705697,1111122 
DISL,ioos:station:DISL:MBLA:1,2018-01-04T08:00:00Z,30.4367,-88.0117,1023.7,11111222 
DISL,ioos:station:DISL:MBLA:1,2018-01-04T08:30:00Z,30.4367,-88.0117,1023.705697,1111122 
DISL,ioos:station:DISL:MBLA:1,2018-01-04T09:00:00Z,30.4367,-88.0117,1023.0,11111222 
DISL,ioos:station:DISL:MBLA:1,2018-01-04T09:30:00Z,30.4367,-88.0117,1023.705697,1111122 
DISL,ioos:station:DISL:MBLA:1,2018-01-04T10:00:00Z,30.4367,-88.0117,1023.4,11111222 
DISL,ioos:station:DISL:MBLA:1,2018-01-04T10:30:00Z,30.4367,-88.0117,1022.68978,1111122 
DISL,ioos:station:DISL:MBLA:1,2018-01-04T11:00:00Z,30.4367,-88.0117,1023.7,11111222 
DISL,ioos:station:DISL:MBLA:1,2018-01-04T11:30:00Z,30.4367,-88.0117,1024.382975,1111122 
DISL,ioos:station:DISL:MBLA:1,2018-01-04T12:00:00Z,30.4367,-88.0117,1024.7,11111222 
DISL,ioos:station:DISL:MBLA:1,2018-01-04T12:30:00Z,30.4367,-88.0117,1024.721614,1111122 
DISL,ioos:station:DISL:MBLA:1,2018-01-04T13:00:00Z,30.4367,-88.0117,1025.1,11111222 
DISL,ioos:station:DISL:MBLA:1,2018-01-04T13:30:00Z,30.4367,-88.0117,1025.737531,1111122 
DISL,ioos:station:DISL:MBLA:1,2018-01-04T14:00:00Z,30.4367,-88.0117,1025.4,11111222 
DISL,ioos:station:DISL:MBLA:1,2018-01-04T14:30:00Z,30.4367,-88.0117,1026.07617,1111122 
DISL,ioos:station:DISL:MBLA:1,2018-01-04T15:00:00Z,30.4367,-88.0117,1026.1,11111222 
DISL,ioos:station:DISL:MBLA:1,2018-01-04T15:30:00Z,30.4367,-88.0117,1026.414809,1111122 
DISL,ioos:station:DISL:MBLA:1,2018-01-04T16:00:00Z,30.4367,-88.0117,1026.1,11111222 
DISL,ioos:station:DISL:MBLA:1,2018-01-04T16:30:00Z,30.4367,-88.0117,1025.398892,1111122 
DISL,ioos:station:DISL:MBLA:1,2018-01-04T17:00:00Z,30.4367,-88.0117,1025.4,11111222 
DISL,ioos:station:DISL:MBLA:1,2018-01-04T17:30:00Z,30.4367,-88.0117,1024.7,11111222 
DISL,ioos:station:DISL:MBLA:1,2018-01-04T18:00:00Z,30.4367,-88.0117,1024.4,11111222 
DISL,ioos:station:DISL:MBLA:1,2018-01-04T18:30:00Z,30.4367,-88.0117,1024.7,11111222 
DISL,ioos:station:DISL:MBLA:1,2018-01-04T19:00:00Z,30.4367,-88.0117,1024.0,11111222 
DISL,ioos:station:DISL:MBLA:1,2018-01-04T19:30:00Z,30.4367,-88.0117,1024.4,11111222 
DISL,ioos:station:DISL:MBLA:1,2018-01-04T20:00:00Z,30.4367,-88.0117,1024.4,11111222 
DISL,ioos:station:DISL:MBLA:1,2018-01-04T20:30:00Z,30.4367,-88.0117,1023.7,11111222 
DISL,ioos:station:DISL:MBLA:1,2018-01-04T21:00:00Z,30.4367,-88.0117,1023.7,11111222 
DISL,ioos:station:DISL:MBLA:1,2018-01-04T21:30:00Z,30.4367,-88.0117,1023.7,11111222 
DISL,ioos:station:DISL:MBLA:1,2018-01-04T22:00:00Z,30.4367,-88.0117,1023.7,11111222 
DISL,ioos:station:DISL:MBLA:1,2018-01-04T22:30:00Z,30.4367,-88.0117,1023.7,11111222 
DISL,ioos:station:DISL:MBLA:1,2018-01-04T23:00:00Z,30.4367,-88.0117,1024.4,11111222 
DISL,ioos:station:DISL:MBLA:1,2018-01-04T23:30:00Z,30.4367,-88.0117,1024.4,11111222 
DISL,ioos:station:DISL:MBLA:1,2018-01-05T00:00:00Z,30.4367,-88.0117,1025.1,11111222 
DISL,ioos:station:DISL:MBLA:1,2018-01-05T00:30:00Z,30.4367,-88.0117,1025.4,11111222 
DISL,ioos:station:DISL:MBLA:1,2018-01-05T01:00:00Z,30.4367,-88.0117,1025.7,11111222 
DISL,ioos:station:DISL:MBLA:1,2018-01-05T01:30:00Z,30.4367,-88.0117,1025.7,11111222 
DISL,ioos:station:DISL:MBLA:1,2018-01-05T02:00:00Z,30.4367,-88.0117,1026.4,11111222 
DISL,ioos:station:DISL:MBLA:1,2018-01-05T02:30:00Z,30.4367,-88.0117,1027.1,11111222 
DISL,ioos:station:DISL:MBLA:1,2018-01-05T03:00:00Z,30.4367,-88.0117,1027.1,11111222 
DISL,ioos:station:DISL:MBLA:1,2018-01-05T03:30:00Z,30.4367,-88.0117,1026.8,11111222 
DISL,ioos:station:DISL:MBLA:1,2018-01-05T04:00:00Z,30.4367,-88.0117,1026.8,11111222 
DISL,ioos:station:DISL:MBLA:1,2018-01-05T04:30:00Z,30.4367,-88.0117,1027.4,11111222 
DISL,ioos:station:DISL:MBLA:1,2018-01-05T05:00:00Z,30.4367,-88.0117,1027.1,11111222 
DISL,ioos:station:DISL:MBLA:1,2018-01-05T05:30:00Z,30.4367,-88.0117,1027.1,11111222 
DISL,ioos:station:DISL:MBLA:1,2018-01-05T06:00:00Z,30.4367,-88.0117,1027.4,11111222 
DISL,ioos:station:DISL:MBLA:1,2018-01-05T06:30:00Z,30.4367,-88.0117,1027.1,11111222 
DISL,ioos:station:DISL:MBLA:1,2018-01-05T07:00:00Z,30.4367,-88.0117,1027.8,11111222 
DISL,ioos:station:DISL:MBLA:1,2018-01-05T07:30:00Z,30.4367,-88.0117,1027.8,11111222 
DISL,ioos:station:DISL:MBLA:1,2018-01-05T08:00:00Z,30.4367,-88.0117,1028.1,11111222 
DISL,ioos:station:DISL:MBLA:1,2018-01-05T08:30:00Z,30.4367,-88.0117,1028.8,11111222 
DISL,ioos:station:DISL:MBLA:1,2018-01-05T09:00:00Z,30.4367,-88.0117,1028.4,11111222 
DISL,ioos:station:DISL:MBLA:1,2018-01-05T09:30:00Z,30.4367,-88.0117,1029.1,11111222 
DISL,ioos:station:DISL:MBLA:1,2018-01-05T10:00:00Z,30.4367,-88.0117,1029.1,11111222 
DISL,ioos:station:DISL:MBLA:1,2018-01-05T10:30:00Z,30.4367,-88.0117,1029.1,11111222 
DISL,ioos:station:DISL:MBLA:1,2018-01-05T11:00:00Z,30.4367,-88.0117,1029.5,11111222 
DISL,ioos:station:DISL:MBLA:1,2018-01-05T11:30:00Z,30.4367,-88.0117,1029.1,11111222 
DISL,ioos:station:DISL:MBLA:1,2018-01-05T12:00:00Z,30.4367,-88.0117,1028.8,11111222 
DISL,ioos:station:DISL:MBLA:1,2018-01-05T12:30:00Z,30.4367,-88.0117,1029.8,11111222 
DISL,ioos:station:DISL:MBLA:1,2018-01-05T13:00:00Z,30.4367,-88.0117,1030.1,11111222 
DISL,ioos:station:DISL:MBLA:1,2018-01-05T13:30:00Z,30.4367,-88.0117,1029.8,11111222 
DISL,ioos:station:DISL:MBLA:1,2018-01-05T14:00:00Z,30.4367,-88.0117,1030.5,11111222 
DISL,ioos:station:DISL:MBLA:1,2018-01-05T14:30:00Z,30.4367,-88.0117,1031.2,11111222 
DISL,ioos:station:DISL:MBLA:1,2018-01-05T15:00:00Z,30.4367,-88.0117,1030.8,11111222 
DISL,ioos:station:DISL:MBLA:1,2018-01-05T15:30:00Z,30.4367,-88.0117,1031.5,11111222 
DISL,ioos:station:DISL:MBLA:1,2018-01-05T16:00:00Z,30.4367,-88.0117,1031.5,11111222 
DISL,ioos:station:DISL:MBLA:1,2018-01-05T16:30:00Z,30.4367,-88.0117,1031.5,11111222 
DISL,ioos:station:DISL:MBLA:1,2018-01-05T17:00:00Z,30.4367,-88.0117,1031.5,11111222 
DISL,ioos:station:DISL:MBLA:1,2018-01-05T17:30:00Z,30.4367,-88.0117,1030.5,11111222 
DISL,ioos:station:DISL:MBLA:1,2018-01-05T18:00:00Z,30.4367,-88.0117,1029.8,11111222 
DISL,ioos:station:DISL:MBLA:1,2018-01-05T18:30:00Z,30.4367,-88.0117,1029.5,11111222 
DISL,ioos:station:DISL:MBLA:1,2018-01-05T19:00:00Z,30.4367,-88.0117,1029.5,11111222 
DISL,ioos:station:DISL:MBLA:1,2018-01-05T19:30:00Z,30.4367,-88.0117,1029.5,11111222 
DISL,ioos:station:DISL:MBLA:1,2018-01-05T20:00:00Z,30.4367,-88.0117,1029.5,11111222 
DISL,ioos:station:DISL:MBLA:1,2018-01-05T20:30:00Z,30.4367,-88.0117,1029.5,11111222 
DISL,ioos:station:DISL:MBLA:1,2018-01-05T21:00:00Z,30.4367,-88.0117,1028.8,11111222 
DISL,ioos:station:DISL:MBLA:1,2018-01-05T21:30:00Z,30.4367,-88.0117,1028.8,11111222 
DISL,ioos:station:DISL:MBLA:1,2018-01-05T22:00:00Z,30.4367,-88.0117,1029.1,11111222 
DISL,ioos:station:DISL:MBLA:1,2018-01-05T22:30:00Z,30.4367,-88.0117,1028.4,11111222 
DISL,ioos:station:DISL:MBLA:1,2018-01-05T23:00:00Z,30.4367,-88.0117,1028.8,11111222 
DISL,ioos:station:DISL:MBLA:1,2018-01-05T23:30:00Z,30.4367,-88.0117,1028.4,11111222 
DISL,ioos:station:DISL:MBLA:1,2018-01-06T00:00:00Z,30.4367,-88.0117,1029.1,11111222 
DISL,ioos:station:DISL:MBLA:1,2018-01-06T00:30:00Z,30.4367,-88.0117,1029.1,11111222 
DISL,ioos:station:DISL:MBLA:1,2018-01-06T01:00:00Z,30.4367,-88.0117,1029.1,11111222 
DISL,ioos:station:DISL:MBLA:1,2018-01-06T01:30:00Z,30.4367,-88.0117,1029.1,11111222 
DISL,ioos:station:DISL:MBLA:1,2018-01-06T02:00:00Z,30.4367,-88.0117,1029.1,11111222 
DISL,ioos:station:DISL:MBLA:1,2018-01-06T02:30:00Z,30.4367,-88.0117,1029.1,11111222 
DISL,ioos:station:DISL:MBLA:1,2018-01-06T03:00:00Z,30.4367,-88.0117,1029.5,11111222 
DISL,ioos:station:DISL:MBLA:1,2018-01-06T03:30:00Z,30.4367,-88.0117,1029.8,11111222 
DISL,ioos:station:DISL:MBLA:1,2018-01-06T04:00:00Z,30.4367,-88.0117,1030.1,11111222 
DISL,ioos:station:DISL:MBLA:1,2018-01-06T04:30:00Z,30.4367,-88.0117,1029.8,11111222 
DISL,ioos:station:DISL:MBLA:1,2018-01-06T05:00:00Z,30.4367,-88.0117,1030.1,11111222 
DISL,ioos:station:DISL:MBLA:1,2018-01-06T05:30:00Z,30.4367,-88.0117,1030.1,11111222 
DISL,ioos:station:DISL:MBLA:1,2018-01-06T06:00:00Z,30.4367,-88.0117,1029.8,11111222 
DISL,ioos:station:DISL:MBLA:1,2018-01-06T06:30:00Z,30.4367,-88.0117,1029.5,11111222 
DISL,ioos:station:DISL:MBLA:1,2018-01-06T07:00:00Z,30.4367,-88.0117,1029.8,11111222 
DISL,ioos:station:DISL:MBLA:1,2018-01-06T07:30:00Z,30.4367,-88.0117,1029.1,11111222 
DISL,ioos:station:DISL:MBLA:1,2018-01-06T08:00:00Z,30.4367,-88.0117,1029.5,11111222 
DISL,ioos:station:DISL:MBLA:1,2018-01-06T08:30:00Z,30.4367,-88.0117,1029.5,11111222 
DISL,ioos:station:DISL:MBLA:1,2018-01-06T09:00:00Z,30.4367,-88.0117,1029.1,11111222 
DISL,ioos:station:DISL:MBLA:1,2018-01-06T09:30:00Z,30.4367,-88.0117,1029.8,11111222 
DISL,ioos:station:DISL:MBLA:1,2018-01-06T10:00:00Z,30.4367,-88.0117,1029.5,11111222 
DISL,ioos:station:DISL:MBLA:1,2018-01-06T10:30:00Z,30.4367,-88.0117,1029.8,11111222 
DISL,ioos:station:DISL:MBLA:1,2018-01-06T11:00:00Z,30.4367,-88.0117,1029.5,11111222 
DISL,ioos:station:DISL:MBLA:1,2018-01-06T11:30:00Z,30.4367,-88.0117,1030.1,11111222 
DISL,ioos:station:DISL:MBLA:1,2018-01-06T12:00:00Z,30.4367,-88.0117,1030.1,11111222 
DISL,ioos:station:DISL:MBLA:1,2018-01-06T12:30:00Z,30.4367,-88.0117,1030.1,11111222 
DISL,ioos:station:DISL:MBLA:1,2018-01-06T13:00:00Z,30.4367,-88.0117,1030.5,11111222 
DISL,ioos:station:DISL:MBLA:1,2018-01-06T13:30:00Z,30.4367,-88.0117,1030.5,11111222 
DISL,ioos:station:DISL:MBLA:1,2018-01-06T14:00:00Z,30.4367,-88.0117,1031.5,11111222 
DISL,ioos:station:DISL:MBLA:1,2018-01-06T14:30:00Z,30.4367,-88.0117,1031.5,11111222 
DISL,ioos:station:DISL:MBLA:1,2018-01-06T15:00:00Z,30.4367,-88.0117,1031.8,11111222 
DISL,ioos:station:DISL:MBLA:1,2018-01-06T15:30:00Z,30.4367,-88.0117,1032.2,11111222 
DISL,ioos:station:DISL:MBLA:1,2018-01-06T16:00:00Z,30.4367,-88.0117,1032.5,11111222 
DISL,ioos:station:DISL:MBLA:1,2018-01-06T16:30:00Z,30.4367,-88.0117,1031.8,11111222 
DISL,ioos:station:DISL:MBLA:1,2018-01-06T17:00:00Z,30.4367,-88.0117,1031.5,11111222 
DISL,ioos:station:DISL:MBLA:1,2018-01-06T17:30:00Z,30.4367,-88.0117,1031.5,11111222 
DISL,ioos:station:DISL:MBLA:1,2018-01-06T18:00:00Z,30.4367,-88.0117,1030.8,11111222 
DISL,ioos:station:DISL:MBLA:1,2018-01-06T18:30:00Z,30.4367,-88.0117,1030.1,11111222 
DISL,ioos:station:DISL:MBLA:1,2018-01-06T19:00:00Z,30.4367,-88.0117,1029.8,11111222 
DISL,ioos:station:DISL:MBLA:1,2018-01-06T19:30:00Z,30.4367,-88.0117,1029.8,11111222 